owner,sensor,date,latitude,longitude,vertical_datum,sea_water_temperature,qcFlag
Murphy,ioos:station:wmo:42397:2,2022-07-01T00:09:00Z,28.7547,-88.2673,28.2,26.4,11111222
Murphy,ioos:station:wmo:42397:2,2022-07-01T00:29:00Z,28.7547,-88.2673,28.2,26.5,11111222
Murphy,ioos:station:wmo:42397:2,2022-07-01T00:49:00Z,28.7547,-88.2673,28.2,26.2,11111222
Murphy,ioos:station:wmo:42397:2,2022-07-01T01:09:00Z,28.7547,-88.2673,28.2,26.1,11111222
Murphy,ioos:station:wmo:42397:2,2022-07-01T01:29:00Z,28.7547,-88.2673,28.2,25.6,11111222
Murphy,ioos:station:wmo:42397:2,2022-07-01T01:48:00Z,28.7547,-88.2673,28.2,25.7,11111222
Murphy,ioos:station:wmo:42397:2,2022-07-01T02:08:00Z,28.7547,-88.2673,28.2,26.0,11111222
Murphy,ioos:station:wmo:42397:2,2022-07-01T02:28:00Z,28.7547,-88.2673,28.2,26.0,11111222
Murphy,ioos:station:wmo:42397:2,2022-07-01T02:48:00Z,28.7547,-88.2673,28.2,26.1,11111222
Murphy,ioos:station:wmo:42397:2,2022-07-01T03:08:00Z,28.7547,-88.2673,28.2,26.3,11111222
Murphy,ioos:station:wmo:42397:2,2022-07-01T03:28:00Z,28.7547,-88.2673,28.2,26.8,11111222
Murphy,ioos:station:wmo:42397:2,2022-07-01T03:48:00Z,28.7547,-88.2673,28.2,26.9,11111222
Murphy,ioos:station:wmo:42397:2,2022-07-01T04:08:00Z,28.7547,-88.2673,28.2,27.1,11111222
Murphy,ioos:station:wmo:42397:2,2022-07-01T04:28:00Z,28.7547,-88.2673,28.2,27.2,11111222
Murphy,ioos:station:wmo:42397:2,2022-07-01T04:47:00Z,28.7547,-88.2673,28.2,27.3,11111222
Murphy,ioos:station:wmo:42397:2,2022-07-01T05:07:00Z,28.7547,-88.2673,28.2,27.3,11111222
Murphy,ioos:station:wmo:42397:2,2022-07-01T05:27:00Z,28.7547,-88.2673,28.2,27.2,11111222
Murphy,ioos:station:wmo:42397:2,2022-07-01T05:47:00Z,28.7547,-88.2673,28.2,27.2,11111222
Murphy,ioos:station:wmo:42397:2,2022-07-01T06:07:00Z,28.7547,-88.2673,28.2,27.1,11111222
Murphy,ioos:station:wmo:42397:2,2022-07-01T06:27:00Z,28.7547,-88.2673,28.2,27.1,11111222
Murphy,ioos:station:wmo:42397:2,2022-07-01T06:47:00Z,28.7547,-88.2673,28.2,27.2,11111222
Murphy,ioos:station:wmo:42397:2,2022-07-01T07:07:00Z,28.7547,-88.2673,28.2,27.5,11111222
Murphy,ioos:station:wmo:42397:2,2022-07-01T07:27:00Z,28.7547,-88.2673,28.2,27.5,11111222
Murphy,ioos:station:wmo:42397:2,2022-07-01T07:47:00Z,28.7547,-88.2673,28.2,27.5,11111222
Murphy,ioos:station:wmo:42397:2,2022-07-01T08:07:00Z,28.7547,-88.2673,28.2,27.4,11111222
Murphy,ioos:station:wmo:42397:2,2022-07-01T08:27:00Z,28.7547,-88.2673,28.2,27.2,11111222
Murphy,ioos:station:wmo:42397:2,2022-07-01T08:47:00Z,28.7547,-88.2673,28.2,27.1,11111222
Murphy,ioos:station:wmo:42397:2,2022-07-01T09:07:00Z,28.7547,-88.2673,28.2,27.1,11111222
Murphy,ioos:station:wmo:42397:2,2022-07-01T09:27:00Z,28.7547,-88.2673,28.2,26.9,11111222
Murphy,ioos:station:wmo:42397:2,2022-07-01T09:47:00Z,28.7547,-88.2673,28.2,27.1,11111222
Murphy,ioos:station:wmo:42397:2,2022-07-01T10:07:00Z,28.7547,-88.2673,28.2,27.2,11111222
Murphy,ioos:station:wmo:42397:2,2022-07-01T10:27:00Z,28.7547,-88.2673,28.2,27.2,11111222
Murphy,ioos:station:wmo:42397:2,2022-07-01T10:47:00Z,28.7547,-88.2673,28.2,27.0,11111222
Murphy,ioos:station:wmo:42397:2,2022-07-01T11:07:00Z,28.7547,-88.2673,28.2,27.2,11111222
Murphy,ioos:station:wmo:42397:2,2022-07-01T11:27:00Z,28.7547,-88.2673,28.2,27.0,11111222
Murphy,ioos:station:wmo:42397:2,2022-07-01T11:46:00Z,28.7547,-88.2673,28.2,26.8,11111222
Murphy,ioos:station:wmo:42397:2,2022-07-01T12:06:00Z,28.7547,-88.2673,28.2,26.9,11111222
Murphy,ioos:station:wmo:42397:2,2022-07-01T12:26:00Z,28.7547,-88.2673,28.2,27.0,11111222
Murphy,ioos:station:wmo:42397:2,2022-07-01T12:46:00Z,28.7547,-88.2673,28.2,27.1,11111222
Murphy,ioos:station:wmo:42397:2,2022-07-01T13:06:00Z,28.7547,-88.2673,28.2,27.0,11111222
Murphy,ioos:station:wmo:42397:2,2022-07-01T13:26:00Z,28.7547,-88.2673,28.2,26.8,11111222
Murphy,ioos:station:wmo:42397:2,2022-07-01T13:46:00Z,28.7547,-88.2673,28.2,26.6,11111222
Murphy,ioos:station:wmo:42397:2,2022-07-01T14:06:00Z,28.7547,-88.2673,28.2,26.7,11111222
Murphy,ioos:station:wmo:42397:2,2022-07-01T14:26:00Z,28.7547,-88.2673,28.2,27.1,11111222
Murphy,ioos:station:wmo:42397:2,2022-07-01T14:46:00Z,28.7547,-88.2673,28.2,26.8,11111222
Murphy,ioos:station:wmo:42397:2,2022-07-01T15:06:00Z,28.7547,-88.2673,28.2,26.7,11111222
Murphy,ioos:station:wmo:42397:2,2022-07-01T15:26:00Z,28.7547,-88.2673,28.2,26.7,11111222
Murphy,ioos:station:wmo:42397:2,2022-07-01T15:45:00Z,28.7547,-88.2673,28.2,26.6,11111222
Murphy,ioos:station:wmo:42397:2,2022-07-01T16:05:00Z,28.7547,-88.2673,28.2,26.7,11111222
Murphy,ioos:station:wmo:42397:2,2022-07-01T16:25:00Z,28.7547,-88.2673,28.2,26.6,11111222
Murphy,ioos:station:wmo:42397:2,2022-07-01T16:45:00Z,28.7547,-88.2673,28.2,26.6,11111222
Murphy,ioos:station:wmo:42397:2,2022-07-01T17:05:00Z,28.7547,-88.2673,28.2,26.6,11111222
Murphy,ioos:station:wmo:42397:2,2022-07-01T17:24:00Z,28.7547,-88.2673,28.2,26.6,11111222
Murphy,ioos:station:wmo:42397:2,2022-07-01T17:44:00Z,28.7547,-88.2673,28.2,26.6,11111222
Murphy,ioos:station:wmo:42397:2,2022-07-01T18:04:00Z,28.7547,-88.2673,28.2,26.6,11111222
Murphy,ioos:station:wmo:42397:2,2022-07-01T18:24:00Z,28.7547,-88.2673,28.2,26.3,11111222
Murphy,ioos:station:wmo:42397:2,2022-07-01T18:44:00Z,28.7547,-88.2673,28.2,26.0,11111222
Murphy,ioos:station:wmo:42397:2,2022-07-01T19:04:00Z,28.7547,-88.2673,28.2,26.0,11111222
Murphy,ioos:station:wmo:42397:2,2022-07-01T19:24:00Z,28.7547,-88.2673,28.2,26.1,11111222
Murphy,ioos:station:wmo:42397:2,2022-07-01T19:44:00Z,28.7547,-88.2673,28.2,26.1,11111222
Murphy,ioos:station:wmo:42397:2,2022-07-01T20:04:00Z,28.7547,-88.2673,28.2,25.9,11111222
Murphy,ioos:station:wmo:42397:2,2022-07-01T20:24:00Z,28.7547,-88.2673,28.2,25.9,11111222
Murphy,ioos:station:wmo:42397:2,2022-07-01T20:44:00Z,28.7547,-88.2673,28.2,25.8,11111222
Murphy,ioos:station:wmo:42397:2,2022-07-01T21:04:00Z,28.7547,-88.2673,28.2,25.8,11111222
Murphy,ioos:station:wmo:42397:2,2022-07-01T21:24:00Z,28.7547,-88.2673,28.2,25.6,11111222
Murphy,ioos:station:wmo:42397:2,2022-07-01T21:44:00Z,28.7547,-88.2673,28.2,25.9,11111222
Murphy,ioos:station:wmo:42397:2,2022-07-01T22:04:00Z,28.7547,-88.2673,28.2,26.2,11111222
Murphy,ioos:station:wmo:42397:2,2022-07-01T22:24:00Z,28.7547,-88.2673,28.2,26.6,11111222
Murphy,ioos:station:wmo:42397:2,2022-07-01T22:44:00Z,28.7547,-88.2673,28.2,26.8,11111222
Murphy,ioos:station:wmo:42397:2,2022-07-01T23:04:00Z,28.7547,-88.2673,28.2,27.0,11111222
Murphy,ioos:station:wmo:42397:2,2022-07-01T23:24:00Z,28.7547,-88.2673,28.2,26.8,11111222
Murphy,ioos:station:wmo:42397:2,2022-07-01T23:44:00Z,28.7547,-88.2673,28.2,26.8,11111222
Murphy,ioos:station:wmo:42397:2,2022-07-02T00:04:00Z,28.7547,-88.2673,28.2,27.0,11111222
Murphy,ioos:station:wmo:42397:2,2022-07-02T00:24:00Z,28.7547,-88.2673,28.2,26.9,11111222
Murphy,ioos:station:wmo:42397:2,2022-07-02T00:44:00Z,28.7547,-88.2673,28.2,26.9,11111222
Murphy,ioos:station:wmo:42397:2,2022-07-02T01:04:00Z,28.7547,-88.2673,28.2,26.9,11111222
Murphy,ioos:station:wmo:42397:2,2022-07-02T01:24:00Z,28.7547,-88.2673,28.2,26.9,11111222
Murphy,ioos:station:wmo:42397:2,2022-07-02T01:44:00Z,28.7547,-88.2673,28.2,26.7,11111222
Murphy,ioos:station:wmo:42397:2,2022-07-02T02:04:00Z,28.7547,-88.2673,28.2,26.6,11111222
Murphy,ioos:station:wmo:42397:2,2022-07-02T02:24:00Z,28.7547,-88.2673,28.2,26.5,11111222
Murphy,ioos:station:wmo:42397:2,2022-07-02T02:44:00Z,28.7547,-88.2673,28.2,26.6,11111222
Murphy,ioos:station:wmo:42397:2,2022-07-02T03:04:00Z,28.7547,-88.2673,28.2,26.8,11111222
Murphy,ioos:station:wmo:42397:2,2022-07-02T03:24:00Z,28.7547,-88.2673,28.2,26.9,11111222
Murphy,ioos:station:wmo:42397:2,2022-07-02T03:44:00Z,28.7547,-88.2673,28.2,27.1,11111222
Murphy,ioos:station:wmo:42397:2,2022-07-02T04:04:00Z,28.7547,-88.2673,28.2,27.1,11111222
Murphy,ioos:station:wmo:42397:2,2022-07-02T04:24:00Z,28.7547,-88.2673,28.2,27.1,11111222
Murphy,ioos:station:wmo:42397:2,2022-07-02T04:43:00Z,28.7547,-88.2673,28.2,27.1,11111222
Murphy,ioos:station:wmo:42397:2,2022-07-02T05:03:00Z,28.7547,-88.2673,28.2,27.3,11111222
Murphy,ioos:station:wmo:42397:2,2022-07-02T05:23:00Z,28.7547,-88.2673,28.2,27.2,11111222
Murphy,ioos:station:wmo:42397:2,2022-07-02T05:43:00Z,28.7547,-88.2673,28.2,27.3,11111222
Murphy,ioos:station:wmo:42397:2,2022-07-02T06:02:00Z,28.7547,-88.2673,28.2,27.1,11111222
Murphy,ioos:station:wmo:42397:2,2022-07-02T06:22:00Z,28.7547,-88.2673,28.2,26.9,11111222
Murphy,ioos:station:wmo:42397:2,2022-07-02T06:42:00Z,28.7547,-88.2673,28.2,27.0,11111222
Murphy,ioos:station:wmo:42397:2,2022-07-02T07:02:00Z,28.7547,-88.2673,28.2,27.1,11111222
Murphy,ioos:station:wmo:42397:2,2022-07-02T07:22:00Z,28.7547,-88.2673,28.2,27.0,11111222
Murphy,ioos:station:wmo:42397:2,2022-07-02T07:42:00Z,28.7547,-88.2673,28.2,27.1,11111222
Murphy,ioos:station:wmo:42397:2,2022-07-02T08:02:00Z,28.7547,-88.2673,28.2,27.0,11111222
Murphy,ioos:station:wmo:42397:2,2022-07-02T08:22:00Z,28.7547,-88.2673,28.2,26.9,11111222
Murphy,ioos:station:wmo:42397:2,2022-07-02T08:42:00Z,28.7547,-88.2673,28.2,26.9,11111222
Murphy,ioos:station:wmo:42397:2,2022-07-02T09:02:00Z,28.7547,-88.2673,28.2,27.1,11111222
Murphy,ioos:station:wmo:42397:2,2022-07-02T09:22:00Z,28.7547,-88.2673,28.2,27.2,11111222
Murphy,ioos:station:wmo:42397:2,2022-07-02T09:42:00Z,28.7547,-88.2673,28.2,27.2,11111222
Murphy,ioos:station:wmo:42397:2,2022-07-02T10:02:00Z,28.7547,-88.2673,28.2,27.2,11111222
Murphy,ioos:station:wmo:42397:2,2022-07-02T10:22:00Z,28.7547,-88.2673,28.2,27.0,11111222
Murphy,ioos:station:wmo:42397:2,2022-07-02T10:41:00Z,28.7547,-88.2673,28.2,27.1,11111222
Murphy,ioos:station:wmo:42397:2,2022-07-02T11:01:00Z,28.7547,-88.2673,28.2,27.0,11111222
Murphy,ioos:station:wmo:42397:2,2022-07-02T11:21:00Z,28.7547,-88.2673,28.2,27.0,11111222
Murphy,ioos:station:wmo:42397:2,2022-07-02T11:40:00Z,28.7547,-88.2673,28.2,27.0,11111222
Murphy,ioos:station:wmo:42397:2,2022-07-02T12:00:00Z,28.7547,-88.2673,28.2,27.1,11111222
Murphy,ioos:station:wmo:42397:2,2022-07-02T12:20:00Z,28.7547,-88.2673,28.2,27.2,11111222
Murphy,ioos:station:wmo:42397:2,2022-07-02T12:40:00Z,28.7547,-88.2673,28.2,27.1,11111222
Murphy,ioos:station:wmo:42397:2,2022-07-02T12:59:00Z,28.7547,-88.2673,28.2,26.8,11111222
Murphy,ioos:station:wmo:42397:2,2022-07-02T13:19:00Z,28.7547,-88.2673,28.2,26.3,11111222
Murphy,ioos:station:wmo:42397:2,2022-07-02T13:39:00Z,28.7547,-88.2673,28.2,26.3,11111222
Murphy,ioos:station:wmo:42397:2,2022-07-02T13:59:00Z,28.7547,-88.2673,28.2,26.6,11111222
Murphy,ioos:station:wmo:42397:2,2022-07-02T14:19:00Z,28.7547,-88.2673,28.2,26.7,11111222
Murphy,ioos:station:wmo:42397:2,2022-07-02T14:38:00Z,28.7547,-88.2673,28.2,26.7,11111222
Murphy,ioos:station:wmo:42397:2,2022-07-02T14:58:00Z,28.7547,-88.2673,28.2,26.7,11111222
Murphy,ioos:station:wmo:42397:2,2022-07-02T15:17:00Z,28.7547,-88.2673,28.2,26.7,11111222
Murphy,ioos:station:wmo:42397:2,2022-07-02T15:37:00Z,28.7547,-88.2673,28.2,26.7,11111222
Murphy,ioos:station:wmo:42397:2,2022-07-02T15:57:00Z,28.7547,-88.2673,28.2,26.7,11111222
Murphy,ioos:station:wmo:42397:2,2022-07-02T16:17:00Z,28.7547,-88.2673,28.2,26.8,11111222
Murphy,ioos:station:wmo:42397:2,2022-07-02T16:37:00Z,28.7547,-88.2673,28.2,26.9,11111222
Murphy,ioos:station:wmo:42397:2,2022-07-02T16:56:00Z,28.7547,-88.2673,28.2,26.8,11111222
Murphy,ioos:station:wmo:42397:2,2022-07-02T17:16:00Z,28.7547,-88.2673,28.2,26.9,11111222
Murphy,ioos:station:wmo:42397:2,2022-07-02T17:36:00Z,28.7547,-88.2673,28.2,26.8,11111222
Murphy,ioos:station:wmo:42397:2,2022-07-02T17:56:00Z,28.7547,-88.2673,28.2,26.8,11111222
Murphy,ioos:station:wmo:42397:2,2022-07-02T18:15:00Z,28.7547,-88.2673,28.2,26.8,11111222
Murphy,ioos:station:wmo:42397:2,2022-07-02T18:35:00Z,28.7547,-88.2673,28.2,27.1,11111222
Murphy,ioos:station:wmo:42397:2,2022-07-02T18:54:00Z,28.7547,-88.2673,28.2,27.2,11111222
Murphy,ioos:station:wmo:42397:2,2022-07-02T19:14:00Z,28.7547,-88.2673,28.2,27.3,11111222
Murphy,ioos:station:wmo:42397:2,2022-07-02T19:34:00Z,28.7547,-88.2673,28.2,27.3,11111222
Murphy,ioos:station:wmo:42397:2,2022-07-02T19:54:00Z,28.7547,-88.2673,28.2,27.2,11111222
Murphy,ioos:station:wmo:42397:2,2022-07-02T20:14:00Z,28.7547,-88.2673,28.2,27.0,11111222
Murphy,ioos:station:wmo:42397:2,2022-07-02T20:34:00Z,28.7547,-88.2673,28.2,27.1,11111222
Murphy,ioos:station:wmo:42397:2,2022-07-02T20:54:00Z,28.7547,-88.2673,28.2,27.1,11111222
Murphy,ioos:station:wmo:42397:2,2022-07-02T21:14:00Z,28.7547,-88.2673,28.2,27.2,11111222
Murphy,ioos:station:wmo:42397:2,2022-07-02T21:34:00Z,28.7547,-88.2673,28.2,27.4,11111222
Murphy,ioos:station:wmo:42397:2,2022-07-02T21:54:00Z,28.7547,-88.2673,28.2,27.4,11111222
Murphy,ioos:station:wmo:42397:2,2022-07-02T22:14:00Z,28.7547,-88.2673,28.2,27.4,11111222
Murphy,ioos:station:wmo:42397:2,2022-07-02T22:34:00Z,28.7547,-88.2673,28.2,27.5,11111222
Murphy,ioos:station:wmo:42397:2,2022-07-02T22:54:00Z,28.7547,-88.2673,28.2,27.5,11111222
Murphy,ioos:station:wmo:42397:2,2022-07-02T23:14:00Z,28.7547,-88.2673,28.2,27.4,11111222
Murphy,ioos:station:wmo:42397:2,2022-07-02T23:34:00Z,28.7547,-88.2673,28.2,27.3,11111222
Murphy,ioos:station:wmo:42397:2,2022-07-02T23:54:00Z,28.7547,-88.2673,28.2,27.1,11111222
Murphy,ioos:station:wmo:42397:2,2022-07-03T00:14:00Z,28.7547,-88.2673,28.2,27.1,11111222
Murphy,ioos:station:wmo:42397:2,2022-07-03T00:34:00Z,28.7547,-88.2673,28.2,27.1,11111222
Murphy,ioos:station:wmo:42397:2,2022-07-03T00:53:00Z,28.7547,-88.2673,28.2,27.0,11111222
Murphy,ioos:station:wmo:42397:2,2022-07-03T01:13:00Z,28.7547,-88.2673,28.2,27.0,11111222
Murphy,ioos:station:wmo:42397:2,2022-07-03T01:33:00Z,28.7547,-88.2673,28.2,27.0,11111222
Murphy,ioos:station:wmo:42397:2,2022-07-03T01:53:00Z,28.7547,-88.2673,28.2,26.8,11111222
Murphy,ioos:station:wmo:42397:2,2022-07-03T02:13:00Z,28.7547,-88.2673,28.2,26.9,11111222
Murphy,ioos:station:wmo:42397:2,2022-07-03T02:33:00Z,28.7547,-88.2673,28.2,26.7,11111222
Murphy,ioos:station:wmo:42397:2,2022-07-03T02:53:00Z,28.7547,-88.2673,28.2,26.7,11111222
Murphy,ioos:station:wmo:42397:2,2022-07-03T03:13:00Z,28.7547,-88.2673,28.2,26.7,11111222
Murphy,ioos:station:wmo:42397:2,2022-07-03T03:33:00Z,28.7547,-88.2673,28.2,26.2,11111222
Murphy,ioos:station:wmo:42397:2,2022-07-03T03:53:00Z,28.7547,-88.2673,28.2,26.1,11111222
Murphy,ioos:station:wmo:42397:2,2022-07-03T04:13:00Z,28.7547,-88.2673,28.2,26.1,11111222
Murphy,ioos:station:wmo:42397:2,2022-07-03T04:33:00Z,28.7547,-88.2673,28.2,26.1,11111222
Murphy,ioos:station:wmo:42397:2,2022-07-03T04:53:00Z,28.7547,-88.2673,28.2,26.1,11111222
Murphy,ioos:station:wmo:42397:2,2022-07-03T05:13:00Z,28.7547,-88.2673,28.2,26.4,11111222
Murphy,ioos:station:wmo:42397:2,2022-07-03T05:33:00Z,28.7547,-88.2673,28.2,26.6,11111222
Murphy,ioos:station:wmo:42397:2,2022-07-03T05:53:00Z,28.7547,-88.2673,28.2,26.7,11111222
Murphy,ioos:station:wmo:42397:2,2022-07-03T06:13:00Z,28.7547,-88.2673,28.2,26.7,11111222
Murphy,ioos:station:wmo:42397:2,2022-07-03T06:33:00Z,28.7547,-88.2673,28.2,26.9,11111222
Murphy,ioos:station:wmo:42397:2,2022-07-03T06:53:00Z,28.7547,-88.2673,28.2,26.9,11111222
Murphy,ioos:station:wmo:42397:2,2022-07-03T07:13:00Z,28.7547,-88.2673,28.2,26.8,11111222
Murphy,ioos:station:wmo:42397:2,2022-07-03T07:33:00Z,28.7547,-88.2673,28.2,26.8,11111222
Murphy,ioos:station:wmo:42397:2,2022-07-03T07:53:00Z,28.7547,-88.2673,28.2,26.8,11111222
Murphy,ioos:station:wmo:42397:2,2022-07-03T08:13:00Z,28.7547,-88.2673,28.2,27.1,11111222
Murphy,ioos:station:wmo:42397:2,2022-07-03T08:33:00Z,28.7547,-88.2673,28.2,27.3,11111222
Murphy,ioos:station:wmo:42397:2,2022-07-03T08:53:00Z,28.7547,-88.2673,28.2,27.2,11111222
Murphy,ioos:station:wmo:42397:2,2022-07-03T09:12:00Z,28.7547,-88.2673,28.2,27.2,11111222
Murphy,ioos:station:wmo:42397:2,2022-07-03T09:32:00Z,28.7547,-88.2673,28.2,27.3,11111222
Murphy,ioos:station:wmo:42397:2,2022-07-03T09:51:00Z,28.7547,-88.2673,28.2,27.1,11111222
Murphy,ioos:station:wmo:42397:2,2022-07-03T10:11:00Z,28.7547,-88.2673,28.2,27.0,11111222
Murphy,ioos:station:wmo:42397:2,2022-07-03T10:31:00Z,28.7547,-88.2673,28.2,27.0,11111222
Murphy,ioos:station:wmo:42397:2,2022-07-03T10:50:00Z,28.7547,-88.2673,28.2,27.2,11111222
Murphy,ioos:station:wmo:42397:2,2022-07-03T11:10:00Z,28.7547,-88.2673,28.2,27.2,11111222
Murphy,ioos:station:wmo:42397:2,2022-07-03T11:30:00Z,28.7547,-88.2673,28.2,27.3,11111222
Murphy,ioos:station:wmo:42397:2,2022-07-03T11:50:00Z,28.7547,-88.2673,28.2,26.9,11111222
Murphy,ioos:station:wmo:42397:2,2022-07-03T12:10:00Z,28.7547,-88.2673,28.2,26.8,11111222
Murphy,ioos:station:wmo:42397:2,2022-07-03T12:29:00Z,28.7547,-88.2673,28.2,26.8,11111222
Murphy,ioos:station:wmo:42397:2,2022-07-03T12:49:00Z,28.7547,-88.2673,28.2,26.9,11111222
Murphy,ioos:station:wmo:42397:2,2022-07-03T13:08:00Z,28.7547,-88.2673,28.2,27.0,11111222
Murphy,ioos:station:wmo:42397:2,2022-07-03T13:28:00Z,28.7547,-88.2673,28.2,26.9,11111222
Murphy,ioos:station:wmo:42397:2,2022-07-03T13:48:00Z,28.7547,-88.2673,28.2,27.0,11111222
Murphy,ioos:station:wmo:42397:2,2022-07-03T14:08:00Z,28.7547,-88.2673,28.2,26.8,11111222
Murphy,ioos:station:wmo:42397:2,2022-07-03T14:28:00Z,28.7547,-88.2673,28.2,27.1,11111222
Murphy,ioos:station:wmo:42397:2,2022-07-03T14:47:00Z,28.7547,-88.2673,28.2,27.3,11111222
Murphy,ioos:station:wmo:42397:2,2022-07-03T15:07:00Z,28.7547,-88.2673,28.2,27.2,11111222
Murphy,ioos:station:wmo:42397:2,2022-07-03T15:27:00Z,28.7547,-88.2673,28.2,27.2,11111222
Murphy,ioos:station:wmo:42397:2,2022-07-03T15:47:00Z,28.7547,-88.2673,28.2,27.3,11111222
Murphy,ioos:station:wmo:42397:2,2022-07-03T16:07:00Z,28.7547,-88.2673,28.2,27.2,11111222
Murphy,ioos:station:wmo:42397:2,2022-07-03T16:27:00Z,28.7547,-88.2673,28.2,27.2,11111222
Murphy,ioos:station:wmo:42397:2,2022-07-03T16:47:00Z,28.7547,-88.2673,28.2,27.2,11111222
Murphy,ioos:station:wmo:42397:2,2022-07-03T17:07:00Z,28.7547,-88.2673,28.2,27.1,11111222
Murphy,ioos:station:wmo:42397:2,2022-07-03T17:27:00Z,28.7547,-88.2673,28.2,27.3,11111222
Murphy,ioos:station:wmo:42397:2,2022-07-03T17:47:00Z,28.7547,-88.2673,28.2,27.4,11111222
Murphy,ioos:station:wmo:42397:2,2022-07-03T18:07:00Z,28.7547,-88.2673,28.2,27.3,11111222
Murphy,ioos:station:wmo:42397:2,2022-07-03T18:27:00Z,28.7547,-88.2673,28.2,27.4,11111222
Murphy,ioos:station:wmo:42397:2,2022-07-03T18:47:00Z,28.7547,-88.2673,28.2,27.4,11111222
Murphy,ioos:station:wmo:42397:2,2022-07-03T19:07:00Z,28.7547,-88.2673,28.2,27.5,11111222
Murphy,ioos:station:wmo:42397:2,2022-07-03T19:27:00Z,28.7547,-88.2673,28.2,27.5,11111222
Murphy,ioos:station:wmo:42397:2,2022-07-03T19:47:00Z,28.7547,-88.2673,28.2,27.7,11111222
Murphy,ioos:station:wmo:42397:2,2022-07-03T20:07:00Z,28.7547,-88.2673,28.2,27.6,11111222
Murphy,ioos:station:wmo:42397:2,2022-07-03T20:27:00Z,28.7547,-88.2673,28.2,27.4,11111222
Murphy,ioos:station:wmo:42397:2,2022-07-03T20:47:00Z,28.7547,-88.2673,28.2,27.5,11111222
Murphy,ioos:station:wmo:42397:2,2022-07-03T21:07:00Z,28.7547,-88.2673,28.2,27.5,11111222
Murphy,ioos:station:wmo:42397:2,2022-07-03T21:27:00Z,28.7547,-88.2673,28.2,27.5,11111222
Murphy,ioos:station:wmo:42397:2,2022-07-03T21:47:00Z,28.7547,-88.2673,28.2,27.7,11111222
Murphy,ioos:station:wmo:42397:2,2022-07-03T22:06:00Z,28.7547,-88.2673,28.2,27.6,11111222
Murphy,ioos:station:wmo:42397:2,2022-07-03T22:26:00Z,28.7547,-88.2673,28.2,27.5,11111222
Murphy,ioos:station:wmo:42397:2,2022-07-03T22:46:00Z,28.7547,-88.2673,28.2,27.6,11111222
Murphy,ioos:station:wmo:42397:2,2022-07-03T23:06:00Z,28.7547,-88.2673,28.2,27.6,11111222
Murphy,ioos:station:wmo:42397:2,2022-07-03T23:26:00Z,28.7547,-88.2673,28.2,27.6,11111222
Murphy,ioos:station:wmo:42397:2,2022-07-03T23:46:00Z,28.7547,-88.2673,28.2,27.4,11111222
Murphy,ioos:station:wmo:42397:2,2022-07-04T00:06:00Z,28.7547,-88.2673,28.2,27.5,11111222
Murphy,ioos:station:wmo:42397:2,2022-07-04T00:26:00Z,28.7547,-88.2673,28.2,27.5,11111222
Murphy,ioos:station:wmo:42397:2,2022-07-04T00:46:00Z,28.7547,-88.2673,28.2,27.7,11111222
Murphy,ioos:station:wmo:42397:2,2022-07-04T01:06:00Z,28.7547,-88.2673,28.2,27.7,11111222
Murphy,ioos:station:wmo:42397:2,2022-07-04T01:26:00Z,28.7547,-88.2673,28.2,27.5,11111222
Murphy,ioos:station:wmo:42397:2,2022-07-04T01:46:00Z,28.7547,-88.2673,28.2,27.7,11111222
Murphy,ioos:station:wmo:42397:2,2022-07-04T02:06:00Z,28.7547,-88.2673,28.2,27.6,11111222
Murphy,ioos:station:wmo:42397:2,2022-07-04T02:26:00Z,28.7547,-88.2673,28.2,27.5,11111222
Murphy,ioos:station:wmo:42397:2,2022-07-04T02:46:00Z,28.7547,-88.2673,28.2,27.3,11111222
Murphy,ioos:station:wmo:42397:2,2022-07-04T03:06:00Z,28.7547,-88.2673,28.2,27.4,11111222
Murphy,ioos:station:wmo:42397:2,2022-07-04T03:26:00Z,28.7547,-88.2673,28.2,27.5,11111222
Murphy,ioos:station:wmo:42397:2,2022-07-04T03:46:00Z,28.7547,-88.2673,28.2,27.4,11111222
Murphy,ioos:station:wmo:42397:2,2022-07-04T04:06:00Z,28.7547,-88.2673,28.2,27.4,11111222
Murphy,ioos:station:wmo:42397:2,2022-07-04T04:26:00Z,28.7547,-88.2673,28.2,27.5,11111222
Murphy,ioos:station:wmo:42397:2,2022-07-04T04:46:00Z,28.7547,-88.2673,28.2,27.5,11111222
Murphy,ioos:station:wmo:42397:2,2022-07-04T05:06:00Z,28.7547,-88.2673,28.2,27.4,11111222
Murphy,ioos:station:wmo:42397:2,2022-07-04T05:26:00Z,28.7547,-88.2673,28.2,27.4,11111222
Murphy,ioos:station:wmo:42397:2,2022-07-04T05:46:00Z,28.7547,-88.2673,28.2,27.3,11111222
Murphy,ioos:station:wmo:42397:2,2022-07-04T06:06:00Z,28.7547,-88.2673,28.2,27.1,11111222
Murphy,ioos:station:wmo:42397:2,2022-07-04T06:26:00Z,28.7547,-88.2673,28.2,27.1,11111222
Murphy,ioos:station:wmo:42397:2,2022-07-04T06:46:00Z,28.7547,-88.2673,28.2,27.0,11111222
Murphy,ioos:station:wmo:42397:2,2022-07-04T07:06:00Z,28.7547,-88.2673,28.2,27.1,11111222
Murphy,ioos:station:wmo:42397:2,2022-07-04T07:26:00Z,28.7547,-88.2673,28.2,27.1,11111222
Murphy,ioos:station:wmo:42397:2,2022-07-04T07:46:00Z,28.7547,-88.2673,28.2,26.9,11111222
Murphy,ioos:station:wmo:42397:2,2022-07-04T08:06:00Z,28.7547,-88.2673,28.2,26.9,11111222
Murphy,ioos:station:wmo:42397:2,2022-07-04T08:26:00Z,28.7547,-88.2673,28.2,27.0,11111222
Murphy,ioos:station:wmo:42397:2,2022-07-04T08:46:00Z,28.7547,-88.2673,28.2,27.0,11111222
Murphy,ioos:station:wmo:42397:2,2022-07-04T09:06:00Z,28.7547,-88.2673,28.2,26.9,11111222
Murphy,ioos:station:wmo:42397:2,2022-07-04T09:26:00Z,28.7547,-88.2673,28.2,27.1,11111222
Murphy,ioos:station:wmo:42397:2,2022-07-04T09:46:00Z,28.7547,-88.2673,28.2,27.2,11111222
Murphy,ioos:station:wmo:42397:2,2022-07-04T10:06:00Z,28.7547,-88.2673,28.2,27.2,11111222
Murphy,ioos:station:wmo:42397:2,2022-07-04T10:26:00Z,28.7547,-88.2673,28.2,27.4,11111222
Murphy,ioos:station:wmo:42397:2,2022-07-04T10:46:00Z,28.7547,-88.2673,28.2,27.4,11111222
Murphy,ioos:station:wmo:42397:2,2022-07-04T11:06:00Z,28.7547,-88.2673,28.2,27.2,11111222
Murphy,ioos:station:wmo:42397:2,2022-07-04T11:26:00Z,28.7547,-88.2673,28.2,27.1,11111222
Murphy,ioos:station:wmo:42397:2,2022-07-04T11:46:00Z,28.7547,-88.2673,28.2,27.1,11111222
Murphy,ioos:station:wmo:42397:2,2022-07-04T12:06:00Z,28.7547,-88.2673,28.2,27.2,11111222
Murphy,ioos:station:wmo:42397:2,2022-07-04T12:26:00Z,28.7547,-88.2673,28.2,27.3,11111222
Murphy,ioos:station:wmo:42397:2,2022-07-04T12:46:00Z,28.7547,-88.2673,28.2,27.3,11111222
Murphy,ioos:station:wmo:42397:2,2022-07-04T13:06:00Z,28.7547,-88.2673,28.2,27.4,11111222
Murphy,ioos:station:wmo:42397:2,2022-07-04T13:26:00Z,28.7547,-88.2673,28.2,27.4,11111222
Murphy,ioos:station:wmo:42397:2,2022-07-04T13:46:00Z,28.7547,-88.2673,28.2,27.5,11111222
Murphy,ioos:station:wmo:42397:2,2022-07-04T14:06:00Z,28.7547,-88.2673,28.2,27.3,11111222
Murphy,ioos:station:wmo:42397:2,2022-07-04T14:26:00Z,28.7547,-88.2673,28.2,27.0,11111222
Murphy,ioos:station:wmo:42397:2,2022-07-04T14:46:00Z,28.7547,-88.2673,28.2,27.7,11111222
Murphy,ioos:station:wmo:42397:2,2022-07-04T15:06:00Z,28.7547,-88.2673,28.2,27.9,11111222
Murphy,ioos:station:wmo:42397:2,2022-07-04T15:25:00Z,28.7547,-88.2673,28.2,28.1,11111222
Murphy,ioos:station:wmo:42397:2,2022-07-04T15:45:00Z,28.7547,-88.2673,28.2,28.1,11111222